Regional Weather Roundup
Issued by NWS

Home | Current Version | Previous Version | Graphics & Text | Print | Product List | Glossary On
Versions: 1 2 3 4 5 6 7 8 9 10 11 12 13 14 15 16 17 18 19 20 21 22 23 24 25 26 27 28 29 30 31 32 33 34 35 36 37 38 39 40 41 42 43 44 45 46 47 48 49 50
000
ASUS43 KIND 220659
RWRIN

WEATHER ROUNDUP FOR INDIANA
NATIONAL WEATHER SERVICE INDIANAPOLIS IN
300 AM EDT WED OCT 22 2014

NOTE: "FAIR" INDICATES FEW OR NO CLOUDS BELOW 12,000 FEET WITH NO
SIGNIFICANT WEATHER AND/OR OBSTRUCTIONS TO VISIBILITY.

* - STATION DOES NOT REPORT WEATHER SUCH AS PRECIPITATION OR FOG.

+ - STATION NOT QUALITY CONTROLLED BY THE NATIONAL WEATHER SERVICE.
    USE DATA WITH CAUTION...ESPECIALLY DEWPOINT AND RELATIVE
    HUMIDITY OBSERVATIONS.

INZ001>003-010>013-019-020-220800-
NORTHWEST INDIANA

CITY           SKY/WX    TMP DP  RH WIND       PRES   REMARKS
VALPARAISO     NOT AVBL

$$

LMZ046-743>745-220800-
SOUTHERN LAKE MICHIGAN

STATION/POSITION TIME  TEMP WIND        PRES
                       AIR  DIR/SP/G
                 (UTC) (F)  (DEG/KT/KT) (MB)
MICHIGAN CITY    0600   43  130/  3/  4   N/A

$$

INZ004-005-014>016-021>024-220800-
NORTH CENTRAL INDIANA

CITY           SKY/WX    TMP DP  RH WIND       PRES   REMARKS
GOSHEN         CLEAR     37  33  85 NE3       30.25S
SOUTH BEND     CLEAR     36  32  85 CALM      30.27R

$$

INZ006>009-017-018-025>027-220800-
NORTHEAST INDIANA

CITY           SKY/WX    TMP DP  RH WIND       PRES   REMARKS
ANGOLA *+      CLEAR     37  19  48 CALM      30.24S
FORT WAYNE     PTCLDY    39  35  86 N7        30.24S

$$

INZ028-029-035-036-043>045-051>053-220800-
WEST CENTRAL INDIANA

CITY           SKY/WX    TMP DP  RH WIND       PRES   REMARKS
GREENCASTLE +  CLEAR     41  37  87 CALM      30.24R
LAFAYETTE      CLEAR     37  36  96 CALM      30.25R
TERRE HAUTE    CLEAR     40  37  89 N5        30.23S

$$

INZ030>032-037>040-046>048-054>057-064-065-220800-
CENTRAL INDIANA

CITY           SKY/WX    TMP DP  RH WIND       PRES   REMARKS
INDIANAPOLIS   CLEAR     43  35  73 N6        30.22R
-EAGLE CREEK   CLEAR     43  35  73 N3        30.22S
KOKOMO *+      CLEAR     39  34  81 N3        30.25R
MT COMFORT *+  MOCLDY    39  34  81 NW5       30.22R
SHELBYVILLE    CLOUDY    45  37  73 N3        30.21R

$$

INZ033-034-041-042-049-050-058-059-220800-
EAST CENTRAL INDIANA

CITY           SKY/WX    TMP DP  RH WIND       PRES   REMARKS
MUNCIE         CLEAR     41  35  79 N5        30.22R

$$

INZ060-061-067>069-081>083-085>088-220800-
SOUTHWEST INDIANA

CITY           SKY/WX    TMP DP  RH WIND       PRES   REMARKS
EVANSVILLE     CLEAR     47  42  83 N6        30.21R
HUNTINGBURG *+ CLEAR     43  37  81 NE5       30.21R

$$

INZ062-063-066-070>080-084-089>092-220800-
SOUTH CENTRAL AND SOUTHEAST INDIANA

CITY           SKY/WX    TMP DP  RH WIND       PRES   REMARKS
BLOOMINGTON    CLEAR     39  38  96 N3        30.22R

$$




USA.gov is the U.S. government's official web portal to all federal, state and local government web resources and services.